User: anonymous   Login
Location: Unspecified
(0.0000°N, 0.0000°E)
Time: 18:41:21
(UTC+00:00)
Language:

OBJECT M - Orbit

View from above orbital plane
View from above orbital plane
View from above satellite
View from above satellite

Ground track
Ground track

The orbit data is extracted from the following two-line orbital elements,

1 42836U 17042M   19077.64113414  .00000168  00000-0  22319-4 0  9991
2 42836  97.5753 334.5161 0013703  15.2831 344.8799 14.91153240 91248
Epoch (UTC): 18 March 2019 15:23:13
Eccentricity: 0.0013703
inclination: 97.5753°
perigee height: 585 km
apogee height: 604 km
right ascension of ascending node: 334.5161°
argument of perigee: 15.2831°
revolutions per day: 14.91153240
mean anomaly at epoch: 344.8799°
orbit number at epoch: 9124

The dashed part of the orbit path shows where the satellite is in the earth's shadow,  

DLR